Regional Weather Roundup
Issued by NWS

Home | Current Version | Previous Version | Text Only | Print | Product List | Glossary On
Versions: 1 2 3 4 5 6 7 8 9 10 11 12 13 14 15 16 17 18 19 20 21 22 23 24 25 26 27 28 29 30 31 32 33 34 35 36 37 38 39 40 41 42 43 44 45 46 47 48 49 50
883
ASUS44 KJAN 250210
RWRMS

MISSISSIPPI HOURLY WEATHER ROUNDUP
NATIONAL WEATHER SERVICE JACKSON MS
800 PM CST SAT JAN 24 2015

NOTE: "FAIR: INDICATES FEW OR NO CLOUDS BELOW 12,000 FEET WITH NO
SIGNIFICANT WEATHER AND/OR OBSTRUCTIONS TO VISIBILITY.

MSZ001>002-007>008-010>013-018>021-025>028-034>036-250300-
NORTHWEST MISSISSIPPI

CITY           SKY/WX    TMP DP  RH WIND       PRES   REMARKS
CLARKSDALE     FAIR      45  37  76 S7        29.97R
CLEVELAND      FAIR      45  40  83 SW8       29.97F
GREENWOOD      CLEAR     39  35  86 S5        29.99F
GREENVILLE     CLEAR     42  33  70 S8        29.98S
GRENADA        FAIR      45  36  70 CALM      29.98S
OLIVE BRANCH   CLEAR     41  37  87 S9        29.93S
OXFORD         FAIR      41  32  70 SW8       29.98R
TUNICA         CLEAR     37  34  87 S9        29.95F WCI  31
$$

MSZ003>006-009-014>017-022>024-029>033-037>039-250300-
NORTHEAST MISSISSIPPI

CITY           SKY/WX    TMP DP  RH WIND       PRES   REMARKS
COLUMBUS AFB   CLEAR     35  30  82 S5        30.00R WCI  31
CORINTH        FAIR      43  30  61 SW7       29.94R
GOLDN TRIANGLE CLEAR     41  30  65 S6        29.99S
STARKVILLE     FAIR      36  32  87 CALM      30.00S
TUPELO         CLEAR     41  30  65 S9        29.97S
$$

MSZ040-058-250300-
CENTRAL MISSISSIPPI

CITY           SKY/WX    TMP DP  RH WIND       PRES   REMARKS
JACKSON INTL   CLEAR     39  32  76 S5        30.04S
JACKSON HAWKNS CLEAR     41  34  76 CALM      30.04S
MERIDIAN KEY   CLEAR     35  33  92 S6        30.03F WCI  30
MERIDIAN NAS   CLEAR     40  31  70 S6        30.02F
RAYMOND        FAIR      37  32  81 MISG      30.04S
VICKSBURG      CLEAR     44  37  76 CALM      30.04R
$$

MSZ059>079-250300-
SOUTH MISSISSIPPI

CITY           SKY/WX    TMP DP  RH WIND       PRES   REMARKS
BROOKHAVEN     FAIR      46  36  66 CALM      30.06F
HATTIESBURG    CLEAR     39  36  89 CALM      30.07S
MCCOMB         CLEAR     43  34  70 CALM      30.06S
NATCHEZ        PTCLDY    45  34  65 S6        30.05F
PINE BELT      CLEAR     37  32  81 CALM      30.06S
$$

MSZ080>082-250300-
COASTAL MISSISSIPPI

CITY           SKY/WX    TMP DP  RH WIND       PRES   REMARKS
BILOXI         CLEAR     48  36  64 W3        30.08S
PASCAGOULA     CLEAR     40  38  93 CALM      30.08S
GULFPORT       CLEAR     47  35  63 W5        30.08S
$$



USA.gov is the U.S. government's official web portal to all federal, state and local government web resources and services.